National Weather Service United States Department of Commerce

Latest Hourly Weather Roundup

TOPSWRTT 000
TTAA00 KICT 242112

Wichita AWIPS Roundup
National Weather Service Wichita KS
300 PM CST SUN JAN 24 2021

....Central Kansas....
  
CITY           SKY/WX    TMP DP  RH WIND       PRES   REMARKS
RUSSELL        CLOUDY    29  24  82 E8        29.97F WCI  21          
SALINA         CLOUDY    34  28  79 N7        30.01F WCI  28          
GREAT BEND     CLOUDY    31  26  82 NE12      29.97F WCI  22          
ELLSWORTH      CLOUDY    30  28  93 N7        29.98F WCI  23          
LYONS          CLOUDY    32  29  86 N9        29.97F WCI  25          
MCPHERSON      CLOUDY    36  32  87 N9        29.97F WCI  29          
HAYS           CLOUDY    28  25  88 NE7       29.98F WCI  21          

....South Central Kansas....
  
CITY           SKY/WX    TMP DP  RH WIND       PRES   REMARKS
HUTCHINSON     CLOUDY    35  29  78 NE9       29.97F WCI  28          
NEWTON         CLOUDY    35  32  88 N9        29.97F WCI  28          
KINGMAN        CLOUDY    37  32  81 N13       29.94F WCI  29          
WICHITA (ICT)  CLOUDY    37  33  85 N10       29.96F WCI  30          
JABARA ARPT    CLOUDY    37  32  82 N8        29.97F WCI  31          
BEECH ARPT     CLOUDY    37  33  86 N8        29.96F WCI  30          
MCCONNELL AFB  NOT AVBL                                               
BENTON         CLOUDY    37  32  84 NE7       29.97F WCI  31          
EL DORADO      CLOUDY    41  36  81 NE6       29.97S WCI  37          
AUGUSTA        CLOUDY    37  34  87 N9        29.97S WCI  31          
WELLINGTON     NOT AVBL                                               
WINFIELD       CLOUDY    38  35  89 N13       29.95F WCI  30          
 
....Southeast Kansas....
  
CITY           SKY/WX    TMP DP  RH WIND       PRES   REMARKS
EUREKA         CLOUDY    38  36  92 N12       29.98F WCI  31          
IOLA           CLOUDY    41  39  93 N7        29.99S WCI  36          
CHANUTE        CLOUDY    44  40  85 NE8       29.97F WCI  39          
PARSONS          N/A    N/A N/A N/A MISG      29.97F                  
COFFEYVILLE    CLOUDY    45  42  89 N9        29.94F FOG              
INDEPENDENCE   CLOUDY    43 N/A N/A N13       29.96F FOG     WCI  36  
FORT SCOTT     NOT AVBL                                               
PITTSBURG      CLOUDY    43  43  99 N7        29.96F FOG     WCI  39  

....Western Kansas....
  
CITY           SKY/WX    TMP DP  RH WIND       PRES   REMARKS
GOODLAND       CLOUDY    32  21  64 S12       29.84F WCI  23          
HILL CITY      CLOUDY    28  22  78 VRB6      29.96F WCI  22          
LIBERAL        MOSUNNY   40  27  59 E8        29.86F WCI  34          
GARDEN CITY    CLOUDY    31  24  75 E12       29.88F WCI  22          
DODGE CITY     PTSUNNY   38  26  62 NE12      29.89F WCI  30          
PRATT          CLOUDY    36  28  72 NE9       29.94F WCI  29          
MEDICINE LODGE   N/A     40  30  67 NE10      29.92F WCI  33          

....Northeast Kansas....
  
CITY           SKY/WX    TMP DP  RH WIND       PRES   REMARKS
CONCORDIA      CLOUDY    30  25  81 E8        30.01F WCI  22          
TOPEKA         CLOUDY    41  26  55 NE3       30.02S                  
MANHATTAN      CLOUDY    38  27  64 NE7       30.02F WCI  33          
LAWRENCE       CLOUDY    41  31  67 NE7       30.01S WCI  36          
OLATHE         CLOUDY    38  37  97 NE6       30.00R FOG     WCI  33  
EMPORIA        CLOUDY    40  31  70 N9        29.98F WCI  34          

....Oklahoma....
  
CITY           SKY/WX    TMP DP  RH WIND       PRES   REMARKS
GAGE           CLOUDY    40  31  70 NE12      29.88F WCI  33          
PONCA CITY     CLOUDY    41  37  86 N14       29.94F WCI  33          
BARTLESVILLE   CLOUDY    45  44  97 N10       29.96S FOG     WCI  40  
TULSA          CLOUDY    54  47  77 N3        29.91S                  
OKLAHOMA CITY  CLOUDY    47  38  71 N13       29.89F                  

Note: "fair" indicates few or no clouds below 12,000 feet with no
significant weather and/or obstructions to visibility.